Tracking 20621 objects as of 31-Mar-2020
HD Live streaming from Space Station
objects crossing your sky now

ARIANE 2 DEB

Track ARIANE 2 DEB now!


NORAD ID: 27649
Int'l Code: 1989-006AD
Perigee: 1,056.8 km
Apogee: 35,695.0 km
Inclination: 8.0 °
Period: 645.7 minutes
Semi major axis: 24746 km
RCS: 0.4685 m2 (medium)
Launch date: January 27, 1989
Source: France (FR)
Launch site: FRENCH GUIANA (FRGUI)

Note: This is SATELLITE DEBRIS
aabbcc
Your satellite tracking list
Your tracking list is empty




NASA's NSSDC Master Catalog

Two Line Element Set (TLE):
1 27649U 89006AD  20089.61830897 -.00000167  00000-0  00000+0 0  9996
2 27649   8.0309 251.8447 6998484 134.3414 353.0792  2.23008517150585
Source of the keplerian elements: AFSPC